Mountain Home, AR

6:38 AM CDT on March 27, 2017 (GMT -0500)
Baxter County Regional

Weather History for KBPK - January, 2014

Change the Weather History Date:

Tuesday, January 7, 2014

  Actual Average (KFLP) Record (KFLP)
Temperature  
Mean Temperature 19 °F -  
Max Temperature 37 °F 45 °F 69 °F (2008)
Min Temperature 1 °F 26 °F 0 °F (2014)
Degree Days  
Heating Degree Days 46    
Moisture  
Dew Point 5 °F    
Average Humidity 53    
Maximum Humidity 75    
Minimum Humidity 36    
Precipitation  
Precipitation 0.00 in - - ()
Sea Level Pressure  
Sea Level Pressure 30.39 in    
Wind  
Wind Speed 6 mph (South)    
Max Wind Speed 13 mph    
Max Gust Speed 17 mph    
Visibility 10 miles    
Events      
Averages and records for this station are not official NWS values.
T = Trace of Precipitation, MM = Missing Value Source: NWS Daily Summary

Daily Weather History Graph

Daily Weather History Graph

Search for Another Location

Airport or City:

Trip Planner

Search our weather history database for the weather conditions in past years. The results will help you decide how hot, cold, wet, or windy it might be!

Date:

Astronomy

Jan. 07, 2014 Rise Set
Actual Time 7:21 AM CST 5:10 PM CST
Civil Twilight 6:53 AM CST 5:39 PM CST
Nautical Twilight 6:21 AM CST 6:11 PM CST
Astronomical Twilight 5:50 AM CST 6:42 PM CST
Moon 11:23 AM CST (1/7) No Moon Set
Length of Visible Light 10h 45m
Length of Day
9h 48m
Waxing Crescent, 46% of the Moon is Illuminated
Jan 7
Waxing Crescent
Jan 7
First Quarter
Jan 15
Full
Jan 23
Last Quarter
Jan 30
New

Hourly Weather History & Observations

Time (CST) Temp. Windchill Dew Point Humidity Pressure Visibility Wind Dir Wind Speed Gust Speed Precip Events Conditions
12:53 AM 1.0 °F -6.7 °F -7.1 °F 69% 30.55 in 10.0 mi South 3.5 mph - N/A   Clear
1:53 AM 1.0 °F -6.7 °F -7.1 °F 69% 30.54 in 10.0 mi SSW 3.5 mph - N/A   Clear
2:53 AM 1.0 °F -6.7 °F -6.0 °F 72% 30.54 in 10.0 mi South 3.5 mph - N/A   Clear
3:53 AM 1.0 °F - -6.0 °F 72% 30.53 in - North - - N/A   Unknown
4:53 AM - - - N/A% 30.46 in - North - - N/A   Unknown
5:53 AM - - - N/A% 30.44 in - North - - N/A   Unknown
6:53 AM 1.0 °F -10.3 °F -5.1 °F 75% 30.50 in 10.0 mi SSE 5.8 mph - N/A   Clear
7:53 AM 3.9 °F -5.3 °F -2.9 °F 73% 30.49 in 10.0 mi South 4.6 mph - N/A   Clear
8:53 AM 10.0 °F 0.4 °F -0.0 °F 64% 30.49 in 10.0 mi SSE 5.8 mph - N/A   Clear
9:53 AM 16.0 °F 6.3 °F 1.9 °F 54% 30.48 in 10.0 mi South 6.9 mph - N/A   Clear
10:53 AM 23.0 °F 13.1 °F 5.0 °F 46% 30.44 in 10.0 mi South 9.2 mph - N/A   Clear
11:53 AM 27.0 °F 16.7 °F 8.1 °F 45% 30.39 in 10.0 mi South 11.5 mph - N/A   Clear
12:53 PM 33.1 °F 23.9 °F 10.9 °F 40% 30.34 in 10.0 mi South 12.7 mph - N/A   Clear
1:53 PM 35.1 °F 27.4 °F 10.9 °F 37% 30.31 in 10.0 mi South 10.4 mph - N/A   Clear
2:53 PM 37.0 °F 31.0 °F 12.0 °F 36% 30.29 in 10.0 mi SSW 8.1 mph - N/A   Clear
3:53 PM 37.0 °F 31.6 °F 12.9 °F 37% 30.28 in 10.0 mi South 6.9 mph - N/A   Clear
4:53 PM 35.1 °F 27.4 °F 12.0 °F 39% 30.23 in 10.0 mi SSW 10.4 mph 17.3 mph N/A   Clear
5:53 PM 32.0 °F 24.8 °F 10.9 °F 42% 30.24 in 10.0 mi SSW 8.1 mph - N/A   Clear
6:53 PM 30.0 °F 23.2 °F 10.9 °F 45% 30.28 in 10.0 mi South 6.9 mph - N/A   Clear
7:53 PM 28.9 °F 23.9 °F 10.0 °F 45% 30.28 in 10.0 mi South 4.6 mph - N/A   Clear
8:53 PM 27.0 °F 23.0 °F 10.9 °F 51% 30.29 in 10.0 mi SSE 3.5 mph - N/A   Clear
9:53 PM 27.0 °F - 10.9 °F 51% 30.30 in 10.0 mi Calm Calm - N/A   Clear
10:53 PM 26.1 °F 21.9 °F 10.9 °F 53% 30.30 in 10.0 mi SSE 3.5 mph - N/A   Clear
11:53 PM 27.0 °F 23.0 °F 12.0 °F 53% 30.30 in 10.0 mi South 3.5 mph - N/A   Clear